Temperature
23 23 22 22 20 20 23 24 24 24 24 24 24 23 22 21 21 21 21 21 21 21 20 20 20 19 19 19 19 19 19 19 19 19 19 19 19 19 19 19 19 19 19 19 19 19 19 19 19
23 23 23 22 20 21 23 24 24 25 24 25 24 23 21 20 20 20 21 21 21 21 21 20 20 20 20 20 19 20 20 19 19 19 19 19 20 20 20 19 19 19 19 19 19 19 18 18 18
24 23 23 20 21 22 24 25 24 25 25 25 23 22 21 21 21 21 21 20 20 21 21 20 20 20 20 20 20 20 20 20 20 19 19 20 20 20 20 19 19 19 19 19 19 18 18 18 18
24 24 23 21 23 24 24 25 24 25 25 24 23 21 21 21 21 21 21 21 21 21 20 20 20 20 20 20 20 19 20 20 20 20 20 20 20 20 19 19 19 19 19 19 19 18 18 18 18
25 24 21 22 23 24 24 25 26 24 24 23 22 21 21 21 21 21 21 21 21 21 21 20 20 20 20 20 20 19 20 19 20 20 20 20 20 20 19 19 19 19 19 19 19 18 18 18 18
25 22 21 21 23 24 24 25 25 24 23 23 22 21 21 21 21 21 21 21 21 21 21 21 20 20 20 20 20 20 19 19 19 20 20 19 19 19 19 19 19 19 19 19 19 18 18 18 18
24 21 22 22 22 23 24 25 25 23 23 23 23 20 21 21 21 21 21 21 21 21 21 21 21 21 20 20 20 20 20 19 19 19 19 19 19 19 19 19 19 19 19 19 19 18 18 18 18
25 21 22 22 22 23 24 25 25 24 24 24 23 21 21 21 21 21 20 20 21 21 21 21 21 21 21 20 20 20 20 19 19 19 19 19 19 19 19 19 19 19 19 19 18 18 18 18 18
25 20 21 22 23 23 24 24 25 25 24 24 23 23 23 22 21 20 20 20 20 20 21 21 21 21 20 20 20 20 20 19 19 19 19 19 19 19 19 19 19 19 19 18 18 18 18 18 18
24 20 23 23 23 23 24 24 24 24 23 23 23 23 23 22 21 21 21 21 21 21 21 21 21 20 20 20 20 19 19 19 19 19 19 19 19 19 19 19 19 19 19 19 18 18 18 18 18
24 22 23 23 24 24 24 23 22 21 20 20 21 22 22 21 21 20 21 21 21 21 21 21 21 20 20 20 20 19 19 19 19 19 19 19 19 19 19 19 19 19 19 19 18 18 18 18 18
23 23 23 23 24 24 23 22 20 18 18 19 20 21 20 19 19 19 19 20 20 20 20 20 20 20 20 20 19 19 19 19 19 19 19 19 19 19 19 19 19 19 19 19 19 18 18 18 18
24 23 23 23 23 22 21 20 19 17 17 18 19 19 18 18 18 18 18 19 19 20 20 20 20 20 20 20 19 19 19 19 19 19 19 19 19 19 19 19 19 19 19 19 19 18 18 18 18
23 22 22 21 21 20 18 18 18 16 16 17 17 16 16 16 17 17 18 18 18 19 19 20 20 20 20 20 20 20 19 19 19 19 19 19 19 19 19 19 19 19 19 19 18 18 18 18 18
24 22 21 20 20 20 19 16 16 15 15 15 15 15 15 16 16 16 16 17 17 18 18 19 20 20 20 20 20 20 20 19 19 19 19 18 18 19 19 18 18 19 18 18 18 18 18 18 18
22 20 19 19 19 19 18 14 14 14 14 14 14 14 15 15 15 16 16 16 17 17 17 18 18 19 20 20 20 20 20 19 19 19 19 19 18 18 18 18 18 18 18 18 18 18 18 18 18
19 20 19 18 17 18 16 13 14 13 13 13 13 13 14 14 15 15 15 16 16 16 17 17 18 18 19 20 20 20 20 19 19 19 19 19 18 18 18 18 18 18 18 18 18 18 18 18 18
20 19 19 17 16 15 14 13 13 13 13 12 12 13 13 14 14 15 15 15 16 16 16 17 17 17 18 19 19 20 20 20 20 20 19 19 19 18 18 18 18 18 18 18 18 18 18 18 18
19 19 18 17 16 14 13 12 13 13 13 12 12 12 12 13 14 15 15 15 16 16 16 17 17 17 17 18 18 19 20 20 20 20 20 19 19 19 18 18 18 18 18 18 18 18 18 18 18
18 17 17 16 16 14 12 12 13 13 13 12 12 11 11 12 13 14 15 15 15 15 16 16 16 17 17 17 17 18 19 19 20 20 20 20 19 19 19 18 18 18 18 18 17 17 17 17 17
16 16 16 16 15 14 13 13 12 12 13 12 12 11 11 11 12 13 13 14 14 14 15 15 15 16 16 16 17 17 18 18 19 19 20 20 19 19 19 18 18 18 18 18 17 17 17 17 17
15 16 16 16 14 12 13 12 11 10 11 12 12 11 11 11 11 12 12 13 13 13 13 14 14 15 15 15 15 16 16 17 18 18 19 19 19 19 19 18 18 18 18 17 17 17 16 16 16
15 15 15 15 13 11 10 11 10 10 10 11 11 11 11 11 11 11 12 12 12 13 13 13 13 14 14 14 14 15 15 16 16 17 18 18 18 18 18 18 18 18 17 17 17 16 16 16 16
14 14 13 11 11 11 10 11 10 10 10 10 11 11 11 11 11 11 12 12 12 13 13 13 13 13 13 13 13 14 14 15 15 16 16 17 17 17 17 17 17 17 17 16 16 16 16 15 15
12 13 13 13 11 11 11 11 11 11 11 11 11 11 11 11 11 11 11 12 12 12 12 12 13 13 13 13 13 13 14 14 14 15 15 15 16 16 16 16 16 16 16 16 16 15 15 15 15
12 11 12 13 12 10 11 11 11 12 12 12 11 11 11 11 11 11 11 11 11 12 12 12 12 12 12 13 13 13 13 14 14 14 14 14 15 15 15 15 15 15 15 15 15 15 15 15 15
12 10 11 10 11 10 11 11 12 12 12 11 11 11 11 11 11 11 11 11 11 12 12 12 12 12 12 12 12 13 13 13 13 13 14 14 14 14 14 14 14 14 14 14 14 14 14 14 14
11 10 9 10 11 11 11 11 10 10 10 10 11 11 12 12 12 12 11 11 11 11 12 12 12 12 12 12 12 12 13 13 13 13 13 13 13 13 13 14 14 14 14 14 14 14 14 14 14
11 10 8 8 9 9 10 10 11 10 10 10 10 12 12 12 12 12 12 12 11 11 11 11 12 12 12 12 12 13 13 13 13 13 13 13 13 13 13 13 13 13 13 13 13 13 13 13 13
11 10 9 9 8 8 9 10 11 10 11 11 12 12 13 13 13 13 12 12 12 11 11 11 11 12 12 12 12 12 13 13 13 13 13 13 14 14 14 14 14 13 13 13 13 13 13 13 13
Wind_Speed
1 5 4 3 6 6 4 4 2 3 5 3 4 6 6 4 1 1 2 9 11 11 12 14 14 13 13 12 11 11 11 11 11 11 11 11 11 11 11 11 10 9 8 7 7 7 8 8 8
3 4 3 5 6 5 3 3 2 3 5 4 5 6 6 5 3 4 5 6 12 11 12 13 15 14 13 12 11 11 10 10 10 10 10 10 9 9 9 9 9 8 7 7 6 6 7 7 7
4 3 4 5 5 4 1 1 2 4 3 2 5 5 4 2 4 4 6 10 11 10 12 14 15 14 13 11 10 10 10 9 9 9 9 8 8 8 8 8 7 7 6 6 6 6 6 6 6
4 4 5 6 4 2 2 1 4 5 4 6 5 5 4 2 5 6 11 12 12 8 11 14 16 14 13 11 11 10 9 8 8 8 8 7 7 7 7 6 7 6 6 5 5 4 5 5 5
4 5 7 6 6 5 2 1 5 5 3 4 4 5 3 5 6 11 13 13 12 9 11 13 16 14 13 12 11 11 9 8 8 7 7 7 6 6 6 5 5 5 5 5 4 4 4 4 4
4 5 6 4 7 7 6 5 4 6 5 4 5 4 2 1 7 11 11 10 10 10 11 13 17 16 14 13 12 11 10 9 9 8 7 7 6 5 5 4 4 4 4 4 4 4 4 4 4
4 5 4 3 5 7 7 6 4 5 4 3 5 5 2 3 6 10 9 8 7 8 8 10 14 16 16 15 14 13 12 10 10 9 8 7 6 5 5 4 3 2 2 2 3 4 4 4 4
5 5 5 4 4 6 8 5 3 4 3 4 4 7 5 6 6 8 7 7 7 7 7 8 11 13 14 15 15 14 13 12 12 11 9 8 7 6 6 5 4 3 1 0 1 3 4 4 5
4 6 3 1 1 3 6 5 5 4 5 3 2 3 4 10 10 7 5 4 6 8 6 6 7 9 11 12 14 14 14 14 13 12 12 10 8 6 6 6 6 5 3 2 1 1 2 4 5
5 4 5 4 2 1 3 6 6 6 7 7 6 6 7 11 9 8 6 7 9 9 8 7 7 7 8 10 11 11 12 12 13 12 12 10 8 7 6 6 8 7 6 4 4 3 2 4 4
4 5 3 1 1 0 2 6 9 7 8 7 6 5 8 7 4 2 4 5 7 7 7 8 8 7 7 7 7 8 9 10 11 12 12 10 8 7 6 5 6 6 6 3 3 3 2 2 2
4 2 2 2 3 4 5 5 9 15 9 9 9 11 13 12 10 9 7 6 5 5 6 7 8 6 7 8 6 6 6 7 8 11 13 10 6 5 6 5 6 5 5 3 3 3 2 2 2
3 2 4 8 10 11 15 13 10 15 13 16 21 22 19 16 13 11 12 12 9 7 6 6 7 9 7 6 6 6 7 8 9 10 12 12 7 4 5 5 6 7 7 5 4 4 3 3 3
3 7 7 9 9 10 17 14 10 13 13 20 22 19 17 16 15 14 15 14 12 11 10 7 5 7 7 8 8 6 8 9 10 11 12 14 11 7 5 4 5 6 8 8 6 4 3 3 3
4 6 8 10 7 3 9 15 14 12 14 20 18 16 16 15 14 13 12 11 11 11 10 10 7 5 6 8 9 7 8 9 8 11 13 15 13 10 7 5 5 6 9 8 5 4 3 3 3
6 6 6 8 10 6 11 9 14 12 15 18 16 14 14 14 14 12 12 11 11 11 11 11 10 8 6 5 7 6 7 8 8 11 13 15 16 14 9 6 7 8 7 5 4 3 3 3 3
8 5 4 7 12 7 9 8 11 13 16 16 15 14 13 14 14 13 12 11 11 11 11 11 11 10 9 7 5 7 7 7 9 10 11 14 16 15 11 6 6 7 4 4 4 4 4 4 4
3 3 4 5 7 11 13 10 10 12 15 14 14 13 14 15 14 13 13 11 11 10 10 10 10 10 10 8 5 4 6 8 7 8 10 13 13 15 11 6 6 6 4 4 4 4 3 3 4
2 4 4 3 4 8 11 10 9 11 15 16 15 14 14 14 12 12 12 12 12 11 11 10 11 10 9 6 5 4 4 6 7 8 10 12 12 12 9 7 6 5 5 5 5 4 4 2 2
5 5 3 3 6 7 8 8 6 8 11 11 13 14 15 17 18 17 15 13 12 12 11 10 10 10 9 7 6 5 5 5 6 6 7 11 11 11 9 8 6 6 5 4 5 4 3 2 3
4 5 2 0 4 5 4 3 7 6 7 12 13 12 13 15 16 17 17 14 13 12 12 11 11 10 10 10 7 7 4 4 3 4 5 8 10 11 9 8 8 7 7 6 5 5 5 4 3
1 2 2 1 3 3 3 1 6 9 10 17 18 17 16 16 15 15 15 15 13 11 10 9 9 9 9 9 7 7 5 5 4 4 4 5 6 7 9 8 9 9 7 7 6 6 5 5 4
4 4 1 2 5 5 7 3 5 8 11 18 17 17 17 16 15 15 14 14 13 10 9 8 8 8 8 8 8 7 6 5 4 3 2 2 3 4 6 7 8 8 8 8 8 8 7 6 5
4 2 6 6 5 5 5 3 6 6 11 16 17 17 17 16 15 14 13 12 11 10 8 7 8 7 8 8 8 8 7 7 5 3 1 0 1 2 3 4 5 7 7 8 9 9 9 8 7
8 5 4 5 6 2 3 3 3 6 8 11 15 16 16 14 14 14 15 15 14 13 10 8 7 7 8 8 8 8 8 8 7 6 4 3 2 1 1 1 3 4 5 6 7 8 8 9 9
5 5 5 3 2 1 3 3 5 5 8 9 10 12 14 14 13 14 15 14 14 14 12 9 8 7 8 8 8 8 8 7 7 7 6 6 4 3 3 2 1 1 3 5 6 7 8 8 9
4 4 2 6 4 3 3 4 4 5 11 12 14 14 15 14 13 14 14 14 14 14 12 10 8 8 8 8 8 8 8 8 7 7 7 5 5 5 5 5 4 3 2 1 3 4 6 7 8
5 4 5 5 4 1 3 4 5 10 13 13 14 15 15 14 13 12 12 13 13 13 12 11 10 9 8 8 8 7 7 7 7 7 7 6 6 5 5 5 4 4 4 3 2 1 2 4 4
6 5 6 5 4 4 0 4 4 7 9 10 12 13 13 12 12 11 10 10 11 12 13 12 12 10 10 9 8 8 8 8 8 7 7 6 5 5 5 4 4 4 3 3 3 3 2 2 3
4 4 3 4 2 3 3 5 6 6 7 8 10 11 11 11 10 9 9 9 9 11 11 12 11 11 10 9 9 9 9 9 9 9 9 7 7 7 6 5 5 4 3 2 2 2 3 3 3
Wind_Direction
257 124 109 67 52 50 40 342 317 38 52 34 72 84 92 90 154 215 100 134 134 143 152 153 153 152 150 148 145 141 138 136 132 130 130 130 130 130 129 127 124 121 118 118 123 130 132 130 127
151 127 81 60 76 64 347 323 4 52 132 144 69 66 66 56 61 101 130 140 139 143 147 152 155 155 155 155 153 150 147 142 137 134 131 128 126 125 124 124 122 120 119 118 120 128 133 131 126
146 108 79 64 80 126 84 8 101 98 115 81 65 52 63 69 123 144 156 143 141 144 148 158 158 160 161 163 162 160 155 151 146 141 137 132 127 124 121 120 117 115 113 113 115 122 126 127 122
114 57 53 62 43 266 245 170 132 118 64 51 80 59 54 68 151 151 143 147 147 147 153 166 164 167 168 171 172 170 165 162 158 153 151 145 139 133 127 123 118 111 105 102 103 114 121 117 114
66 78 54 40 0 333 319 200 140 111 75 54 79 82 35 360 113 133 145 154 154 154 162 173 171 174 175 177 180 176 174 174 172 170 167 163 154 146 136 127 119 111 100 89 78 84 103 105 100
61 67 65 28 346 345 8 20 81 88 95 98 98 95 41 93 130 146 153 157 160 163 169 179 179 181 183 184 185 182 183 185 185 183 183 177 172 167 157 143 128 115 99 83 68 59 72 85 88
89 79 79 34 357 1 358 1 71 99 106 142 127 102 108 188 175 153 154 151 157 169 174 185 186 187 190 191 192 190 190 192 193 193 193 192 193 193 190 177 163 143 110 79 62 52 53 63 73
105 93 72 31 19 344 332 7 62 82 101 124 118 137 183 204 169 141 140 147 163 178 188 195 195 193 194 197 200 198 198 198 199 200 202 207 210 214 216 206 201 205 216 248 44 45 46 50 55
83 74 101 147 70 319 338 21 23 33 74 56 59 161 194 147 140 133 136 159 181 195 202 206 208 206 203 203 208 206 206 205 204 205 208 211 216 225 232 222 221 233 248 264 287 352 24 43 42
69 111 181 194 185 195 21 33 15 37 29 17 19 32 94 131 150 163 178 192 202 209 208 208 210 212 210 212 215 214 212 210 208 205 208 208 207 218 229 232 234 240 249 263 277 290 360 45 38
79 143 186 224 236 277 58 57 31 45 24 352 340 34 82 105 128 196 230 227 225 227 222 214 213 213 211 217 217 212 212 210 209 205 204 201 201 215 224 228 244 255 260 266 299 330 8 30 11
89 111 96 4 32 43 42 60 52 41 12 355 41 61 58 54 37 16 356 333 308 276 249 235 215 211 215 218 223 215 211 211 210 207 202 193 192 204 215 220 227 236 244 244 251 265 280 280 271
79 90 45 30 57 65 65 57 69 34 25 48 57 54 49 47 37 29 28 22 8 345 314 274 232 217 213 212 220 220 217 217 215 211 206 199 197 200 209 221 225 228 230 230 237 249 263 268 264
69 80 56 33 50 65 71 48 45 17 29 51 52 51 46 41 33 27 20 14 8 3 352 332 286 238 217 216 219 220 220 220 214 213 210 206 206 205 204 217 224 226 223 224 228 239 253 266 262
84 87 52 28 22 65 83 45 23 10 40 49 43 42 39 34 29 23 14 8 1 357 357 358 345 320 254 230 225 225 222 217 216 218 213 210 209 208 207 213 224 227 221 216 220 234 242 258 252
48 60 49 13 10 32 79 60 14 14 42 44 33 27 27 23 21 15 8 3 359 356 355 355 359 351 327 278 241 231 225 220 222 220 215 212 212 210 207 213 228 227 211 199 202 212 228 244 236
35 59 47 12 12 41 79 78 24 23 41 39 27 19 16 10 8 4 0 357 353 350 349 350 351 350 341 318 269 234 222 221 225 221 217 215 212 210 207 213 225 222 201 195 213 201 198 214 216
22 65 62 41 30 67 84 79 42 31 39 34 21 12 7 1 353 350 350 350 346 343 343 344 345 346 340 328 303 257 231 227 220 218 218 213 210 209 206 210 215 208 205 207 202 207 200 205 197
105 109 96 61 75 80 89 80 47 33 32 24 13 4 357 347 339 342 345 344 343 344 345 342 343 342 342 338 329 303 264 242 229 224 215 207 204 203 202 210 206 197 207 216 201 189 199 200 143
80 98 77 48 82 104 108 84 47 39 34 19 6 356 349 343 341 341 340 340 340 339 339 338 338 335 335 329 313 288 279 267 244 229 214 203 198 197 202 203 201 191 198 205 189 177 176 185 164
58 112 103 52 71 85 120 65 17 360 5 5 4 354 348 342 336 334 333 332 333 334 333 332 330 329 330 329 320 311 292 284 269 233 217 210 198 192 188 190 185 181 180 187 184 184 183 188 196
355 9 326 241 109 46 3 291 2 333 341 357 355 351 345 339 335 332 330 328 326 324 322 322 325 327 331 333 330 326 312 295 283 274 248 220 204 195 187 182 177 173 171 174 182 187 189 182 195
293 323 345 114 117 69 22 52 330 337 351 347 344 343 340 338 335 330 327 323 321 320 321 321 325 331 334 338 339 333 325 309 299 291 256 216 194 189 182 180 179 176 177 180 183 188 191 193 193
325 60 62 55 73 53 340 30 345 345 335 332 336 340 339 339 339 337 337 334 330 329 327 326 332 340 346 348 351 350 349 347 347 353 358 100 131 154 170 178 185 185 184 187 192 194 195 196 194
34 75 49 27 33 9 325 58 319 302 324 328 332 337 339 342 346 348 349 347 345 345 342 341 345 351 356 2 5 3 5 10 17 12 20 36 45 51 83 161 180 188 194 197 195 197 200 197 196
25 82 127 158 159 301 3 14 287 288 324 332 336 337 344 349 349 351 349 348 349 351 348 350 356 3 6 10 9 11 19 24 25 26 32 36 34 31 37 62 100 172 199 205 202 202 203 197 196
52 54 111 118 107 73 351 324 319 332 343 345 345 344 343 343 346 351 350 350 351 351 355 360 7 14 10 9 10 15 20 26 27 28 34 35 30 34 40 46 56 55 57 158 202 202 197 188 187
79 96 74 83 120 97 339 330 316 322 331 334 335 337 335 337 340 342 344 347 351 353 1 9 15 12 8 9 14 18 17 19 22 26 28 27 24 29 37 41 48 50 46 44 53 88 153 161 167
19 50 75 79 96 133 235 295 258 285 304 315 320 324 326 329 331 332 337 345 353 0 6 12 12 14 12 10 12 21 20 21 26 29 23 20 22 24 30 39 45 49 49 49 60 61 65 103 119
91 74 113 122 105 117 145 272 281 289 297 306 313 320 324 327 329 331 335 345 356 2 4 9 12 16 14 15 22 27 25 27 31 30 26 27 32 32 32 35 41 37 37 56 85 85 79 84 91
Height
1512 1511 1511 1513 1515 1527 1529 1523 1517 1515 1516 1516 1516 1517 1518 1521 1524 1527 1523 1524 1527 1530 1533 1536 1538 1540 1542 1544 1545 1547 1548 1549 1550 1550 1551 1552 1553 1553 1554 1555 1556 1556 1557 1558 1559 1559 1560 1561 1561
1512 1512 1513 1514 1525 1540 1534 1521 1519 1517 1517 1517 1517 1518 1520 1521 1522 1522 1522 1525 1529 1532 1534 1537 1539 1541 1543 1545 1546 1547 1548 1549 1550 1551 1552 1552 1553 1554 1554 1555 1556 1556 1557 1558 1559 1560 1560 1561 1562
1513 1513 1515 1517 1529 1536 1529 1520 1518 1517 1518 1518 1520 1521 1522 1523 1523 1524 1525 1527 1530 1533 1536 1538 1540 1542 1544 1545 1547 1548 1549 1549 1550 1551 1552 1553 1554 1554 1555 1555 1556 1556 1557 1558 1559 1560 1561 1562 1562
1514 1515 1516 1524 1529 1525 1522 1518 1517 1518 1519 1519 1521 1523 1525 1526 1526 1526 1528 1529 1532 1534 1537 1539 1541 1542 1544 1546 1547 1548 1549 1550 1551 1551 1552 1553 1554 1555 1555 1556 1556 1557 1557 1558 1559 1560 1561 1562 1562
1514 1515 1524 1533 1530 1523 1518 1517 1517 1518 1520 1521 1522 1525 1526 1528 1528 1529 1530 1531 1533 1535 1537 1539 1541 1543 1544 1546 1547 1548 1549 1550 1551 1552 1553 1554 1555 1555 1556 1556 1557 1557 1557 1558 1559 1559 1561 1561 1562
1515 1517 1535 1541 1534 1524 1520 1519 1518 1520 1522 1523 1524 1525 1528 1528 1529 1531 1532 1533 1535 1536 1538 1540 1541 1543 1544 1546 1547 1548 1549 1550 1551 1552 1553 1554 1555 1555 1556 1556 1557 1557 1558 1558 1559 1559 1560 1561 1562
1517 1523 1536 1538 1536 1529 1523 1521 1521 1522 1523 1524 1525 1526 1528 1529 1531 1532 1533 1534 1536 1538 1539 1540 1542 1543 1544 1546 1547 1548 1549 1550 1551 1552 1553 1554 1555 1555 1556 1556 1557 1558 1558 1559 1559 1560 1560 1561 1562
1518 1524 1535 1539 1538 1533 1526 1524 1525 1524 1525 1526 1526 1527 1528 1530 1531 1533 1534 1535 1537 1538 1539 1541 1542 1543 1544 1545 1547 1548 1549 1549 1550 1551 1552 1553 1554 1555 1556 1556 1557 1557 1558 1559 1559 1560 1560 1561 1562
1519 1531 1540 1538 1536 1533 1528 1526 1527 1527 1527 1528 1528 1528 1529 1531 1532 1534 1535 1536 1537 1538 1539 1541 1542 1543 1544 1545 1546 1547 1548 1549 1550 1551 1552 1553 1554 1555 1555 1556 1556 1557 1558 1558 1559 1560 1560 1561 1561
1520 1535 1534 1531 1530 1530 1529 1529 1530 1530 1530 1531 1531 1531 1532 1532 1533 1535 1536 1537 1538 1539 1540 1541 1542 1543 1544 1544 1545 1546 1547 1548 1549 1550 1551 1552 1553 1554 1554 1555 1555 1556 1557 1558 1559 1560 1560 1561 1562
1523 1529 1528 1529 1530 1530 1531 1533 1534 1534 1537 1538 1536 1535 1535 1536 1538 1538 1539 1540 1540 1541 1541 1541 1542 1543 1543 1544 1544 1545 1545 1546 1547 1548 1549 1550 1551 1552 1553 1554 1555 1555 1556 1557 1558 1559 1560 1561 1562
1526 1528 1529 1530 1531 1531 1533 1535 1540 1543 1547 1542 1538 1538 1538 1540 1541 1541 1541 1541 1542 1542 1542 1542 1542 1543 1543 1543 1543 1543 1544 1545 1545 1547 1548 1548 1549 1551 1552 1553 1554 1554 1555 1556 1558 1559 1560 1561 1562
1527 1530 1531 1533 1533 1536 1537 1541 1546 1550 1549 1543 1540 1540 1542 1542 1543 1542 1541 1540 1540 1539 1540 1541 1541 1541 1542 1542 1542 1542 1542 1543 1544 1545 1545 1546 1547 1549 1550 1551 1552 1553 1554 1555 1557 1559 1560 1561 1562
1530 1532 1534 1536 1536 1540 1542 1549 1551 1556 1552 1546 1544 1545 1546 1545 1545 1543 1542 1540 1539 1537 1537 1537 1538 1539 1539 1540 1540 1540 1540 1541 1541 1542 1543 1544 1545 1547 1548 1550 1551 1552 1553 1554 1556 1558 1559 1560 1561
1530 1534 1537 1539 1539 1542 1543 1557 1562 1562 1556 1551 1550 1550 1549 1548 1546 1545 1543 1541 1539 1537 1535 1534 1533 1533 1534 1535 1536 1537 1538 1538 1539 1539 1540 1541 1542 1544 1546 1548 1549 1550 1552 1553 1554 1556 1557 1559 1560
1533 1540 1549 1547 1544 1544 1549 1571 1569 1565 1559 1556 1555 1554 1552 1550 1549 1547 1545 1542 1539 1537 1534 1532 1530 1529 1529 1530 1531 1533 1534 1535 1536 1536 1537 1538 1539 1541 1542 1545 1546 1548 1550 1551 1552 1554 1555 1556 1558
1546 1552 1554 1553 1550 1548 1556 1572 1573 1568 1563 1561 1559 1557 1555 1552 1550 1547 1545 1542 1540 1537 1534 1531 1528 1527 1526 1525 1526 1528 1529 1530 1531 1532 1533 1534 1535 1537 1539 1541 1543 1545 1547 1548 1550 1551 1553 1554 1555
1555 1555 1557 1559 1559 1558 1565 1574 1574 1570 1566 1564 1562 1559 1556 1554 1551 1548 1545 1542 1539 1536 1533 1530 1527 1525 1523 1522 1521 1522 1523 1525 1526 1527 1528 1530 1531 1533 1534 1536 1539 1541 1543 1544 1546 1548 1550 1551 1553
1551 1556 1560 1560 1560 1566 1572 1575 1575 1572 1568 1566 1564 1561 1557 1555 1552 1548 1544 1541 1538 1534 1531 1528 1525 1522 1520 1518 1517 1517 1517 1518 1520 1521 1523 1525 1526 1528 1530 1532 1534 1536 1538 1540 1542 1544 1546 1548 1550
1555 1561 1563 1563 1562 1568 1575 1576 1575 1573 1572 1571 1568 1563 1559 1553 1549 1545 1542 1539 1535 1532 1529 1526 1522 1519 1517 1515 1513 1512 1512 1512 1513 1514 1516 1519 1521 1523 1524 1526 1529 1531 1533 1535 1537 1540 1542 1544 1546
1560 1564 1564 1564 1566 1569 1573 1577 1577 1574 1573 1571 1568 1564 1559 1555 1549 1544 1540 1537 1533 1529 1526 1523 1520 1517 1514 1512 1510 1508 1507 1506 1507 1508 1510 1512 1515 1517 1519 1521 1523 1525 1527 1529 1531 1534 1537 1539 1542
1566 1562 1562 1563 1571 1581 1578 1584 1583 1578 1573 1569 1565 1561 1558 1553 1547 1542 1538 1534 1531 1527 1524 1521 1517 1514 1511 1509 1506 1505 1503 1502 1502 1503 1504 1506 1508 1511 1513 1515 1517 1518 1521 1523 1525 1528 1531 1534 1536
1564 1562 1563 1564 1573 1583 1586 1587 1589 1581 1577 1571 1567 1562 1557 1552 1546 1541 1537 1533 1529 1525 1521 1518 1515 1512 1509 1506 1504 1502 1500 1499 1498 1498 1499 1500 1502 1504 1506 1509 1511 1512 1514 1516 1519 1522 1524 1527 1530
1563 1563 1566 1573 1579 1593 1594 1593 1592 1587 1583 1575 1569 1563 1558 1552 1546 1541 1536 1531 1527 1522 1519 1516 1514 1510 1508 1505 1503 1501 1499 1497 1496 1495 1495 1496 1498 1500 1502 1504 1505 1507 1509 1511 1513 1516 1518 1521 1524
1567 1572 1582 1584 1595 1598 1591 1592 1593 1585 1581 1577 1571 1565 1559 1553 1547 1541 1536 1531 1526 1521 1518 1515 1512 1509 1507 1505 1502 1500 1498 1497 1495 1494 1494 1495 1496 1497 1498 1500 1501 1502 1504 1506 1508 1510 1512 1515 1517
1573 1577 1587 1590 1595 1599 1592 1594 1591 1583 1580 1576 1572 1566 1560 1554 1549 1544 1538 1533 1527 1522 1518 1515 1512 1509 1507 1505 1503 1501 1499 1497 1496 1495 1495 1495 1495 1495 1496 1497 1498 1499 1500 1501 1503 1504 1506 1508 1510
1575 1581 1581 1591 1595 1600 1596 1591 1585 1581 1578 1575 1571 1566 1561 1556 1552 1546 1541 1535 1530 1524 1519 1516 1513 1511 1508 1506 1504 1503 1501 1499 1498 1497 1496 1496 1496 1495 1495 1496 1496 1496 1497 1497 1498 1499 1500 1502 1504
1578 1581 1587 1592 1597 1600 1598 1595 1595 1586 1581 1576 1572 1568 1563 1559 1554 1550 1544 1539 1534 1528 1522 1518 1515 1513 1511 1509 1507 1505 1504 1503 1501 1500 1499 1498 1498 1497 1497 1496 1496 1496 1495 1495 1496 1496 1496 1497 1499
1582 1585 1591 1599 1600 1605 1605 1602 1587 1586 1582 1579 1574 1570 1566 1561 1557 1553 1548 1543 1538 1532 1527 1523 1519 1516 1514 1512 1510 1509 1507 1506 1505 1504 1503 1502 1501 1500 1499 1498 1497 1497 1496 1496 1495 1495 1495 1496 1497
1582 1586 1590 1597 1604 1603 1605 1603 1583 1583 1581 1578 1575 1571 1567 1563 1560 1555 1551 1546 1541 1536 1532 1528 1524 1521 1518 1516 1514 1512 1511 1510 1508 1507 1506 1505 1504 1503 1502 1501 1500 1499 1499 1498 1497 1497 1497 1497 1497